Home > Weather > Greenville > Past weeks

Flag for USA Past Weather in Greenville, South Carolina, USA — Yesterday and Last 2 Weeks

Now
76 °F

Sunny.


Feels Like: 77 °F
Forecast: 60 / 86 °F
Wind: 5 mph from South

Location: Greenville Downtown Airport

Current Time: May 24, 2016 at 9:38:45 PM

Latest Report: May 24, 2016 at 8:53 PM


Visibility: 10 mi

Pressure: 30.11 "Hg

Humidity: 23%

Dew Point: 35 °F

Location of GreenvilleLocation

Past Weather in Greenville — Graph

°F

Greenville Temperature Yesterday

Maximum temperature yesterday: 77 °F (at 1:53 PM)
Minimum temperature yesterday: 58 °F (at 4:53 AM)
Average temperature yesterday: 68 °F

High & Low Weather Summary for the Past Weeks

 TemperatureHumidityPressure
High89 °F (May 12, 2:53 PM)94% (May 13, 4:53 AM)30.25 "Hg (May 13, 4:53 AM)
Low48 °F (May 15, 5:53 AM)19% (May 14, 1:53 PM)29.80 "Hg (May 14, 5:53 PM)
Average68 °F61%30.04 "Hg
* Reported May 9 7:53 PM — May 24 7:53 PM, Greenville, Weather by CustomWeather, © 2016

Note: Actual official high and low records may vary slightly from our data, if they occured in-between our weather recording intervals... More about our weather records

Advertising

Greenville Weather History for the Previous 24 Hours

Scroll right to see more
 ConditionsComfort  
Time TempWeatherWind HumidityBarometerVisibility
7:53 PM
Tue, May 24
79 °FSunny.5 mph34%30.11 "Hg10 mi
6:53 PM81 °FSunny.9 mph33%30.10 "Hg10 mi
5:53 PM82 °FPassing clouds.9 mph31%30.09 "Hg10 mi
4:53 PM81 °FPartly sunny.3 mph26%30.09 "Hg10 mi
3:53 PM81 °FPassing clouds.10 mph34%30.11 "Hg10 mi
2:53 PM80 °FSunny.8 mph34%30.12 "Hg10 mi
1:53 PM79 °FSunny.6 mph20%30.13 "Hg10 mi
12:53 PM77 °FSunny.10 mph40%30.16 "Hg10 mi
11:53 AM75 °FSunny.9 mph43%30.16 "Hg10 mi
10:53 AM72 °FSunny.6 mph48%30.16 "Hg10 mi
9:53 AM70 °FSunny.7 mph49%30.17 "Hg10 mi
8:53 AM66 °FSunny.6 mph59%30.16 "Hg10 mi
7:53 AM61 °FSunny.6 mph72%30.15 "Hg10 mi
6:53 AM56 °FClear.No wind84%30.12 "Hg10 mi
5:53 AM57 °FClear.No wind81%30.10 "Hg10 mi
4:53 AM58 °FClear.No wind81%30.09 "Hg10 mi
3:53 AM58 °FPassing clouds.No wind81%30.07 "Hg10 mi
2:53 AM61 °FPassing clouds.5 mph72%30.06 "Hg10 mi
1:53 AM61 °FPassing clouds.5 mph70%30.06 "Hg10 mi
12:53 AM64 °FPassing clouds.3 mph61%30.06 "Hg10 mi
11:53 PM
Mon, May 23
65 °FPassing clouds.No wind59%30.06 "Hg10 mi
10:53 PM66 °FClear.3 mph56%30.05 "Hg10 mi
9:53 PM67 °FClear.3 mph55%30.03 "Hg10 mi
Weather by CustomWeather, © 2016

See weather overviewHow to use our weather pages